Date String (YYYY-MM-DD hh:mm:ss) UTC,Instrument flags,Ambient pressure (hPa),Sample flow (lpm),Bypass flow (lpm),Sample temperature (°C),Ambient temperature (°C),ASC tube jacket temperature (°C),LED temperature (°C),Box temperature (°C),Sample RH (%),Span deviation,Mass concentration (μg/m³),Mass concentration (μg/m³),Mass concentration (μg/m³)
DateTimeUTC,F1_M11,P_M11,Q1_M11,Q2_M11,T1_M11,T2_M11,T3_M11,T4_M11,T5_M11,U1_M11,ZSPAN_M11,X0_M11,X2_M11,X1_M11
2022-09-20 23:00:00,,0826.5,5.00,0.00,29.6,28.4,00.0,38.2,31.5,13.6,0000.0,0010.04,0003.14,0002.20
2022-09-20 23:01:00,,0826.5,5.00,0.00,29.7,28.4,00.0,38.2,31.6,13.6,0000.0,0009.89,0003.13,0002.20
2022-09-20 23:02:00,,0826.5,4.99,0.00,29.7,27.2,00.0,38.2,31.6,13.5,0000.0,0011.50,0003.17,0002.20
2022-09-20 23:03:00,,0826.5,5.00,0.00,29.6,26.4,00.0,38.2,31.5,13.4,0000.0,0011.36,0003.19,0002.22
2022-09-20 23:04:00,,0826.5,5.00,0.00,29.6,26.6,00.0,38.1,31.5,13.4,0000.0,0011.39,0003.17,0002.20
2022-09-20 23:05:00,,0826.5,4.99,0.00,29.5,26.9,00.0,38.1,31.3,13.4,0000.0,0011.95,0003.20,0002.20
2022-09-20 23:06:00,,0826.4,5.00,0.00,29.5,27.2,00.0,38.1,31.3,13.4,0000.0,0012.62,0003.19,0002.20
2022-09-20 23:07:00,,0826.5,5.01,0.00,29.5,27.5,00.0,38.1,31.3,13.1,0000.0,0011.44,0003.14,0002.18
2022-09-20 23:08:00,,0826.5,4.99,0.00,29.5,27.8,00.0,38.1,31.4,13.4,0000.0,0011.10,0003.12,0002.17
2022-09-20 23:09:00,,0826.5,5.01,0.00,29.6,28.1,00.0,38.1,31.4,13.6,0000.0,0012.30,0003.13,0002.18
2022-09-20 23:10:00,,0826.5,4.99,0.00,29.6,28.3,00.0,38.2,31.5,13.5,0000.0,0012.32,0003.12,0002.18
2022-09-20 23:11:00,,0826.4,5.00,0.00,29.6,28.5,00.0,38.2,31.6,13.3,0000.0,0012.92,0003.07,0002.17
2022-09-20 23:12:00,,0826.4,5.01,0.00,29.7,28.1,00.0,38.2,31.6,13.6,0000.0,0013.51,0003.07,0002.17
2022-09-20 23:13:00,,0826.4,5.00,0.00,29.7,26.8,00.0,38.2,31.5,13.8,0000.0,0013.11,0003.11,0002.18
2022-09-20 23:14:00,,0826.3,4.99,0.00,29.6,26.4,00.0,38.2,31.5,14.0,0000.0,0012.38,0003.07,0002.17
2022-09-20 23:15:00,,0826.3,5.01,0.00,29.6,26.7,00.0,38.1,31.4,14.6,0000.0,0012.52,0003.07,0002.17
2022-09-20 23:16:00,,0826.4,5.00,0.00,29.5,27.0,00.0,38.1,31.2,14.6,0000.0,0012.93,0003.07,0002.18
2022-09-20 23:17:00,,0826.4,5.00,0.00,29.5,27.3,00.0,38.1,31.2,15.1,0000.0,0013.02,0003.11,0002.18
2022-09-20 23:18:00,,0826.4,5.01,0.00,29.5,27.6,00.0,38.1,31.3,14.8,0000.0,0013.42,0003.13,0002.18
2022-09-20 23:19:00,,0826.4,5.00,0.00,29.5,27.9,00.0,38.1,31.4,15.0,0000.0,0013.95,0003.21,0002.20
2022-09-20 23:20:00,,0826.4,5.00,0.00,29.6,28.1,00.0,38.2,31.4,14.6,0000.0,0013.17,0003.22,0002.19
2022-09-20 23:21:00,,0826.4,5.00,0.00,29.6,28.3,00.0,38.2,31.5,14.7,0000.0,0012.99,0003.21,0002.19
2022-09-20 23:22:00,,0826.4,5.00,0.00,29.7,28.5,00.0,38.2,31.6,14.8,0000.0,0012.61,0003.22,0002.17
2022-09-20 23:23:00,,0826.3,5.00,0.00,29.7,28.3,00.0,38.2,31.7,14.9,0000.0,0012.33,0003.27,0002.17
2022-09-20 23:24:00,,0826.3,5.01,0.00,29.7,27.1,00.0,38.2,31.6,15.2,0000.0,0011.74,0003.27,0002.17
2022-09-20 23:25:00,,0826.2,5.00,0.00,29.6,26.5,00.0,38.2,31.5,14.9,0000.0,0011.44,0003.31,0002.16
2022-09-20 23:26:00,,0826.2,5.00,0.00,29.6,26.7,00.0,38.2,31.4,14.7,0000.0,0012.08,0003.35,0002.17
2022-09-20 23:27:00,,0826.2,5.00,0.00,29.6,26.9,00.0,38.2,31.3,14.8,0000.0,0011.54,0003.34,0002.17
2022-09-20 23:28:00,,0826.2,4.99,0.00,29.5,27.3,00.0,38.2,31.3,15.0,0000.0,0010.76,0003.30,0002.17
2022-09-20 23:29:00,,0826.2,5.01,0.00,29.5,27.6,00.0,38.2,31.3,15.3,0000.0,0010.91,0003.30,0002.16
2022-09-20 23:30:00,,0826.2,5.00,0.00,29.6,27.9,00.0,38.2,31.4,15.1,0000.0,0011.35,0003.33,0002.16
2022-09-20 23:31:00,,0826.3,5.00,0.00,29.6,28.1,00.0,38.2,31.5,15.1,0000.0,0010.83,0003.32,0002.15
2022-09-20 23:32:00,,0826.3,5.00,0.00,29.6,28.3,00.0,38.2,31.5,15.3,0000.0,0011.35,0003.35,0002.15
2022-09-20 23:33:00,,0826.3,5.01,0.00,29.7,28.5,00.0,38.2,31.6,15.1,0000.0,0012.23,0003.36,0002.15
2022-09-20 23:34:00,,0826.3,4.99,0.00,29.7,28.0,00.0,38.2,31.6,15.1,0000.0,0012.64,0003.39,0002.16
2022-09-20 23:35:00,,0826.4,5.00,0.00,29.7,26.7,00.0,38.2,31.5,15.1,0000.0,0012.98,0003.40,0002.16
2022-09-20 23:36:00,,0826.3,5.00,0.00,29.6,26.5,00.0,38.2,31.5,15.3,0000.0,0013.16,0003.37,0002.15
2022-09-20 23:37:00,,0826.4,5.01,0.00,29.6,26.7,00.0,38.1,31.4,15.2,0000.0,0012.27,0003.32,0002.14
2022-09-20 23:38:00,,0826.4,5.00,0.00,29.5,27.0,00.0,38.1,31.2,15.4,0000.0,0012.42,0003.34,0002.14
2022-09-20 23:39:00,,0826.4,5.00,0.00,29.5,27.3,00.0,38.1,31.3,15.6,0000.0,0012.73,0003.38,0002.14
2022-09-20 23:40:00,,0826.5,5.00,0.00,29.5,27.6,00.0,38.2,31.3,15.8,0000.0,0012.56,0003.42,0002.14
2022-09-20 23:41:00,,0826.5,5.01,0.00,29.5,27.9,00.0,38.2,31.4,16.0,0000.0,0012.31,0003.41,0002.13
2022-09-20 23:42:00,,0826.5,4.99,0.00,29.6,28.1,00.0,38.2,31.5,16.1,0000.0,0012.74,0003.39,0002.14
2022-09-20 23:43:00,,0826.5,4.99,0.00,29.6,28.3,00.0,38.2,31.5,16.1,0000.0,0012.99,0003.40,0002.15
2022-09-20 23:44:00,,0826.5,5.01,0.00,29.6,28.4,00.0,38.2,31.6,16.2,0000.0,0012.74,0003.42,0002.15
2022-09-20 23:45:00,,0826.5,5.00,0.00,29.7,27.4,00.0,38.2,31.6,16.2,0000.0,0012.40,0003.42,0002.15
2022-09-20 23:46:00,,0826.5,5.00,0.00,29.6,26.3,00.0,38.2,31.4,15.9,0000.0,0013.31,0003.40,0002.14
2022-09-20 23:47:00,,0826.5,5.00,0.00,29.6,26.4,00.0,38.1,31.4,15.9,0000.0,0013.14,0003.41,0002.15
2022-09-20 23:48:00,,0826.5,5.00,0.00,29.5,26.7,00.0,38.1,31.2,16.1,0000.0,0015.31,0003.48,0002.17
2022-09-20 23:49:00,,0826.5,5.00,0.00,29.5,27.0,00.0,38.1,31.1,15.6,0000.0,0015.11,0003.52,0002.17
2022-09-20 23:50:00,,0826.5,4.99,0.00,29.4,27.3,00.0,38.1,31.2,15.7,0000.0,0014.77,0003.52,0002.16
2022-09-20 23:51:00,,0826.5,5.01,0.00,29.5,27.6,00.0,38.1,31.3,15.6,0000.0,0014.68,0003.54,0002.17
2022-09-20 23:52:00,,0826.5,4.99,0.00,29.5,27.9,00.0,38.1,31.3,15.6,0000.0,0014.56,0003.55,0002.18
2022-09-20 23:53:00,,0826.5,5.01,0.00,29.5,28.1,00.0,38.1,31.4,15.8,0000.0,0014.29,0003.62,0002.19
2022-09-20 23:54:00,,0826.5,5.00,0.00,29.6,28.3,00.0,38.2,31.5,15.7,0000.0,0016.01,0003.68,0002.19
2022-09-20 23:55:00,,0826.5,5.00,0.00,29.6,28.4,00.0,38.2,31.5,15.5,0000.0,0016.88,0003.70,0002.20
2022-09-20 23:56:00,,0826.5,5.00,0.00,29.6,28.3,00.0,38.2,31.6,15.5,0000.0,0016.87,0003.74,0002.21
2022-09-20 23:57:00,,0826.5,5.00,0.00,29.6,27.0,00.0,38.2,31.5,15.4,0000.0,0016.49,0003.83,0002.24
2022-09-20 23:58:00,,0826.5,5.00,0.00,29.6,26.2,00.0,38.2,31.4,15.6,0000.0,0017.08,0003.86,0002.25
2022-09-20 23:59:00,,0826.5,5.00,0.00,29.6,26.4,00.0,38.1,31.4,15.7,0000.0,0016.05,0003.83,0002.27
